KBTL-WX Weather Reports


time (UTC)temp
C
wind
direction
speed
KPH
gust
KPH
rain 1hr
cm
rain 24hr
cm
rain mn
cm
humidity
%
barometer
mb
20260505194513 12 264 16.1 0.0 0.00 0.33 0.33 49 975.8
20260505193029 11 264 16.1 0.0 0.00 0.33 0.33 49 975.8
20260505191515 11 261 16.1 0.0 0.00 0.33 0.33 49 975.8
20260505190034 11 262 14.5 0.0 0.00 0.33 0.33 49 975.8
20260505184516 10 260 16.1 0.0 0.00 0.33 0.33 59 976.3
20260505183035 10 260 16.1 0.0 0.00 0.33 0.33 55 975.6
20260505181516 11 260 16.1 0.0 0.00 0.33 0.33 55 975.6
20260505180038 11 263 16.1 0.0 0.00 0.33 0.33 55 975.6
20260505174515 11 260 16.1 0.0 0.00 0.33 0.33 68 974.9
20260505173029 10 264 12.9 0.0 0.00 0.33 0.33 69 974.3
20260505171516 10 259 11.3 0.0 0.00 0.33 0.33 69 974.3
20260505170036 8 272 12.9 0.0 0.00 0.33 0.33 69 974.3
20260505164516 8 264 12.9 0.0 0.00 0.33 0.33 76 974.9
20260505163034 9 269 14.5 0.0 0.00 0.33 0.33 72 973.6
20260505161516 8 264 14.5 0.0 0.00 0.36 0.36 72 973.6
20260505153035 9 277 19.3 0.0 0.13 0.36 0.36 72 974.2
20260505151516 9 278 17.7 0.0 0.13 0.41 0.41 72 974.2
20260505124515 9 268 17.7 0.0 0.00 0.23 0.23 65 972.6
20260505123034 9 274 16.1 0.0 0.00 0.23 0.23 68 971.5
20260505121515 9 261 16.1 0.0 0.00 0.23 0.23 68 971.5
20260505120043 10 251 12.9 0.0 0.00 0.23 0.23 68 971.5
20260505114516 10 252 12.9 0.0 0.00 0.23 0.23 67 971.5
20260505113031 9 263 11.3 0.0 0.00 0.23 0.23 65 970.3
20260505111515 9 271 14.5 0.0 0.00 0.23 0.23 65 970.3
20260505101515 10 248 12.9 0.0 0.00 0.23 0.23 72 969.1
20260505100042 9 214 9.7 0.0 0.00 0.23 0.23 72 969.1
20260505094515 10 240 9.7 0.0 0.00 0.23 0.23 69 969.0
20260505093036 10 238 8.0 0.0 0.00 0.23 0.23 70 969.0
20260505091515 10 260 14.5 0.0 0.00 0.23 0.23 70 969.1
20260505090043 11 262 12.9 0.0 0.00 0.23 0.23 70 969.1
20260505084513 11 273 17.7 0.0 0.00 0.23 0.23 83 969.0
20260505083032 12 268 17.7 0.0 0.00 0.23 0.23 83 968.0
20260505081515 12 269 19.3 0.0 0.00 0.23 0.23 83 968.0
20260505080039 12 253 17.7 0.0 0.00 0.23 0.23 85 968.9
20260505074515 12 243 17.7 0.0 0.00 0.23 0.23 81 968.3
20260505073035 12 244 19.3 0.0 0.00 0.23 0.23 81 968.3
20260505071516 13 232 17.7 0.0 0.00 0.23 0.23 81 968.3
20260505070040 13 227 19.3 0.0 0.00 0.23 0.23 81 968.3
20260505064515 13 232 14.5 0.0 0.00 0.23 0.23 76 969.0
20260505063030 13 230 12.9 0.0 0.00 0.23 0.23 79 968.3
20260505061516 13 230 12.9 0.0 0.00 0.23 0.23 79 968.3
20260505060042 13 232 14.5 0.0 0.00 0.23 0.23 79 968.3
20260505054516 14 237 17.7 0.0 0.00 0.23 0.23 75 968.8
20260505053037 14 201 20.9 0.0 0.00 0.23 0.23 76 968.6
20260505051515 14 202 17.7 0.0 0.00 0.23 0.23 76 968.6
20260505041515 15 218 16.1 0.0 0.00 0.25 0.25 77 968.1
20260505040041 15 202 11.3 0.0 0.00 0.25 0.25 77 968.1
20260505034512 15 173 16.1 0.0 0.25 0.25 0.25 69 968.4
20260505033034 15 189 14.5 0.0 0.08 0.15 0.15 79 968.3
20260505031515 15 192 14.5 0.0 0.08 0.15 0.15 79 968.3
20260505030040 15 194 12.9 0.0 0.08 0.15 0.15 79 968.3
20260505024515 16 224 14.5 0.0 0.05 0.05 0.05 62 969.1
20260505023035 16 210 20.9 0.0 0.05 0.05 0.05 56 969.1
20260505021515 17 216 24.1 0.0 0.00 0.03 0.03 56 969.1
20260505020039 18 219 27.4 0.0 0.00 0.03 0.03 56 969.1
20260505014515 18 218 27.4 0.0 0.00 0.00 0.00 56 967.9
20260505013032 18 213 20.9 0.0 0.00 0.00 0.00 56 967.9
20260505011516 16 204 38.6 0.0 0.00 0.00 0.00 56 968.0
20260505010037 18 215 24.1 0.0 0.00 0.00 0.00 56 968.0
20260505004515 18 215 25.7 0.0 0.00 0.00 0.00 39 968.1
20260505003031 19 215 27.4 0.0 0.00 0.00 0.00 49 969.1
20260505001514 18 211 22.5 0.0 0.00 0.00 0.00 49 968.9
20260505000037 18 215 22.5 0.0 0.00 0.00 0.00 49 968.9
20260504234514 20 218 32.2 0.0 0.00 0.00 0.00 46 968.2
20260504233032 21 222 24.1 0.0 0.00 0.00 0.00 37 968.5
20260504231514 21 232 17.7 0.0 0.00 0.00 0.00 37 968.6
20260504230037 22 245 19.3 0.0 0.00 0.00 0.00 37 968.6
20260504224514 22 257 24.1 0.0 0.00 0.00 0.00 36 967.6
20260504223034 22 241 29.0 0.0 0.00 0.00 0.00 40 968.1
20260504221514 22 257 25.7 0.0 0.00 0.00 0.00 40 968.1
20260504220041 23 256 25.7 0.0 0.00 0.00 0.00 40 968.1
20260504214513 23 247 27.4 0.0 0.00 0.00 0.00 41 969.2
20260504213034 23 241 29.0 0.0 0.00 0.00 0.00 41 969.2
20260504211513 23 233 29.0 0.0 0.00 0.00 0.00 38 968.3
20260504210039 23 234 27.4 0.0 0.00 0.00 0.00 38 968.3
20260504204518 23 236 27.4 0.0 0.00 0.00 0.00 43 968.9
20260504203028 22 230 27.4 0.0 0.00 0.00 0.00 43 968.9
20260504201519 23 220 29.0 0.0 0.00 0.00 0.00 43 968.9
20260504200036 22 219 27.4 0.0 0.00 0.00 0.00 39 968.4